Meteo pe oră la Bolshie Ploty

Astăzi, 9 Mai, Duminică

Timp Temperatura Precipitaţii Vânt Presiune Umiditate
00:00 +8°C° 0 mm 3 m/s 732 mmHg 96%
01:00 +6°C° 0 mm 4 m/s 732 mmHg 95%
02:00 +6°C° 0 mm 5 m/s 732 mmHg 95%
03:00 +5°C° 0 mm 5 m/s 733 mmHg 95%
04:00 +3°C° 0.2 mm 6 m/s 733 mmHg 95%
05:00 +3°C° 0.2 mm 7 m/s 733 mmHg 95%
06:00 +1°C° 0.2 mm 8 m/s 734 mmHg 96%
07:00 0°C° 0.4 mm 8 m/s 735 mmHg 96%
08:00 0°C° 0.4 mm 8 m/s 736 mmHg 96%
09:00 0°C° 0.4 mm 8 m/s 737 mmHg 96%
10:00 0°C° 0.2 mm 8 m/s 737 mmHg 93%
11:00 +1°C° 0.2 mm 8 m/s 738 mmHg 90%
12:00 +2°C° 0.2 mm 8 m/s 739 mmHg 87%
13:00 +4°C° 0.1 mm 8 m/s 739 mmHg 81%
14:00 +5°C° 0.1 mm 8 m/s 740 mmHg 75%
15:00 +6°C° 0.1 mm 8 m/s 741 mmHg 69%
16:00 +6°C° 0 mm 7 m/s 741 mmHg 69%
17:00 +7°C° 0 mm 6 m/s 742 mmHg 69%
18:00 +7°C° 0 mm 6 m/s 742 mmHg 70%
19:00 +6°C° 0 mm 5 m/s 743 mmHg 73%
20:00 +5°C° 0 mm 4 m/s 743 mmHg 77%
21:00 +4°C° 0 mm 4 m/s 744 mmHg 80%
22:00 +4°C° 0 mm 4 m/s 744 mmHg 81%
23:00 +4°C° 0 mm 4 m/s 745 mmHg 81%

Mâine, 10 Mai, Luni

Timp Temperatura Precipitaţii Vânt Presiune Umiditate
00:00 +3°C° 0 mm 4 m/s 745 mmHg 81%
01:00 +3°C° 0 mm 4 m/s 746 mmHg 80%
02:00 +3°C° 0 mm 4 m/s 746 mmHg 79%
03:00 +1°C° 0 mm 4 m/s 747 mmHg 78%
04:00 +1°C° 0 mm 4 m/s 747 mmHg 78%
05:00 +3°C° 0 mm 4 m/s 747 mmHg 77%
06:00 +2°C° 0 mm 5 m/s 748 mmHg 77%
07:00 +3°C° 0 mm 5 m/s 748 mmHg 72%
08:00 +5°C° 0 mm 6 m/s 748 mmHg 67%
09:00 +8°C° 0 mm 6 m/s 748 mmHg 62%
10:00 +9°C° 0 mm 7 m/s 749 mmHg 58%
11:00 +9°C° 0 mm 7 m/s 749 mmHg 54%
12:00 +10°C° 0 mm 7 m/s 749 mmHg 50%
13:00 +11°C° 0 mm 7 m/s 749 mmHg 49%
14:00 +11°C° 0 mm 8 m/s 749 mmHg 49%
15:00 +11°C° 0 mm 8 m/s 749 mmHg 49%
16:00 +11°C° 0 mm 8 m/s 748 mmHg 52%
17:00 +11°C° 0 mm 7 m/s 748 mmHg 55%
18:00 +10°C° 0 mm 7 m/s 748 mmHg 58%
19:00 +9°C° 0 mm 6 m/s 748 mmHg 61%
20:00 +8°C° 0 mm 6 m/s 749 mmHg 64%
21:00 +7°C° 0 mm 6 m/s 749 mmHg 66%
22:00 +7°C° 0 mm 6 m/s 749 mmHg 67%
23:00 +5°C° 0 mm 6 m/s 749 mmHg 69%

Poimâine, 11 Mai, Marţi

Timp Temperatura Precipitaţii Vânt Presiune Umiditate
00:00 +5°C° 0 mm 6 m/s 748 mmHg 70%
01:00 +5°C° 0 mm 6 m/s 748 mmHg 72%
02:00 +5°C° 0 mm 6 m/s 748 mmHg 75%
03:00 +4°C° 0 mm 6 m/s 748 mmHg 77%
04:00 +4°C° 0 mm 6 m/s 748 mmHg 79%
05:00 +4°C° 0 mm 6 m/s 748 mmHg 80%
06:00 +4°C° 0 mm 6 m/s 748 mmHg 82%
07:00 +5°C° 0 mm 7 m/s 748 mmHg 79%
08:00 +8°C° 0 mm 7 m/s 748 mmHg 76%
09:00 +9°C° 0 mm 8 m/s 748 mmHg 73%
10:00 +10°C° 0 mm 7 m/s 748 mmHg 74%
11:00 +10°C° 0 mm 7 m/s 748 mmHg 75%
12:00 +11°C° 0 mm 7 m/s 748 mmHg 76%
13:00 +12°C° 0 mm 7 m/s 748 mmHg 75%
14:00 +14°C° 0 mm 7 m/s 748 mmHg 74%
15:00 +15°C° 0 mm 7 m/s 748 mmHg 73%
16:00 +15°C° 0 mm 6 m/s 748 mmHg 76%
17:00 +14°C° 0 mm 5 m/s 748 mmHg 79%
18:00 +14°C° 0 mm 4 m/s 748 mmHg 83%
19:00 +14°C° 0.3 mm 4 m/s 748 mmHg 85%
20:00 +13°C° 0.3 mm 5 m/s 748 mmHg 87%
21:00 +13°C° 0.3 mm 5 m/s 747 mmHg 90%
22:00 +12°C° 1.2 mm 4 m/s 747 mmHg 91%
23:00 +12°C° 1.2 mm 4 m/s 747 mmHg 92%

12 Mai, Miercuri

Timp Temperatura Precipitaţii Vânt Presiune Umiditate
00:00 +11°C° 1.2 mm 3 m/s 747 mmHg 93%
01:00 +11°C° 0.4 mm 3 m/s 747 mmHg 94%
02:00 +12°C° 0.4 mm 2 m/s 747 mmHg 95%
03:00 +11°C° 0.4 mm 1 m/s 746 mmHg 96%
04:00 +10°C° 0.2 mm 2 m/s 746 mmHg 97%
05:00 +12°C° 0.2 mm 2 m/s 746 mmHg 97%
06:00 +12°C° 0.2 mm 2 m/s 745 mmHg 98%
07:00 +10°C° 3.1 mm 3 m/s 745 mmHg 97%
08:00 +10°C° 3.1 mm 4 m/s 745 mmHg 96%
09:00 +8°C° 3.1 mm 5 m/s 745 mmHg 95%
10:00 +10°C° 0.5 mm 4 m/s 745 mmHg 90%
11:00 +11°C° 0.5 mm 3 m/s 746 mmHg 84%
12:00 +13°C° 0.5 mm 2 m/s 747 mmHg 78%
13:00 +14°C° 0 mm 2 m/s 747 mmHg 72%
14:00 +15°C° 0 mm 2 m/s 747 mmHg 66%
15:00 +17°C° 0 mm 3 m/s 747 mmHg 60%
16:00 +16°C° 0 mm 3 m/s 746 mmHg 65%
17:00 +16°C° 0 mm 3 m/s 746 mmHg 69%
18:00 +15°C° 0 mm 4 m/s 746 mmHg 73%
19:00 +14°C° 0 mm 3 m/s 746 mmHg 78%
20:00 +13°C° 0 mm 3 m/s 745 mmHg 83%
21:00 +12°C° 0 mm 3 m/s 745 mmHg 88%
22:00 +12°C° 0 mm 3 m/s 745 mmHg 91%
23:00 +12°C° 0 mm 3 m/s 744 mmHg 93%

13 Mai, Joi

Timp Temperatura Precipitaţii Vânt Presiune Umiditate
00:00 +12°C° 0 mm 3 m/s 744 mmHg 95%
01:00 +12°C° 0.6 mm 3 m/s 744 mmHg 96%
02:00 +12°C° 0.6 mm 4 m/s 743 mmHg 96%
03:00 +13°C° 0.6 mm 4 m/s 743 mmHg 96%
04:00 +13°C° 0.3 mm 4 m/s 743 mmHg 96%
05:00 +13°C° 0.3 mm 5 m/s 743 mmHg 96%
06:00 +12°C° 0.3 mm 5 m/s 743 mmHg 95%
07:00 +13°C° 0.1 mm 5 m/s 742 mmHg 93%
08:00 +13°C° 0.1 mm 5 m/s 742 mmHg 92%
09:00 +14°C° 0.1 mm 5 m/s 742 mmHg 90%
10:00 +14°C° 0.1 mm 5 m/s 743 mmHg 88%
11:00 +15°C° 0.1 mm 5 m/s 743 mmHg 86%
12:00 +16°C° 0.1 mm 5 m/s 743 mmHg 84%
13:00 +17°C° 0.2 mm 5 m/s 743 mmHg 79%
14:00 +19°C° 0.2 mm 5 m/s 742 mmHg 73%
15:00 +20°C° 0.2 mm 4 m/s 742 mmHg 68%
16:00 +19°C° 0.1 mm 4 m/s 742 mmHg 70%
17:00 +19°C° 0.1 mm 4 m/s 742 mmHg 73%
18:00 +19°C° 0.1 mm 4 m/s 742 mmHg 76%
19:00 +18°C° 0 mm 3 m/s 742 mmHg 79%
20:00 +16°C° 0 mm 3 m/s 742 mmHg 83%
21:00 +14°C° 0 mm 3 m/s 742 mmHg 87%
22:00 +14°C° 0 mm 3 m/s 742 mmHg 88%
23:00 +13°C° 0 mm 3 m/s 742 mmHg 88%

14 Mai, Vineri

Timp Temperatura Precipitaţii Vânt Presiune Umiditate
00:00 +13°C° 0 mm 3 m/s 742 mmHg 89%
01:00 +13°C° 0 mm 3 m/s 742 mmHg 90%
02:00 +12°C° 0 mm 3 m/s 742 mmHg 91%
03:00 +12°C° 0 mm 3 m/s 742 mmHg 92%
04:00 +12°C° 0 mm 3 m/s 742 mmHg 92%
05:00 +13°C° 0 mm 4 m/s 741 mmHg 91%
06:00 +13°C° 0 mm 4 m/s 741 mmHg 91%
07:00 +15°C° 0 mm 5 m/s 741 mmHg 87%
08:00 +16°C° 0 mm 5 m/s 741 mmHg 83%
09:00 +17°C° 0 mm 6 m/s 741 mmHg 79%
10:00 +20°C° 0 mm 7 m/s 741 mmHg 74%
11:00 +21°C° 0 mm 7 m/s 741 mmHg 69%
12:00 +23°C° 0 mm 8 m/s 740 mmHg 65%
13:00 +23°C° 0.1 mm 7 m/s 740 mmHg 66%
14:00 +23°C° 0.1 mm 7 m/s 740 mmHg 68%
15:00 +23°C° 0.1 mm 7 m/s 740 mmHg 69%
16:00 +22°C° 0.2 mm 6 m/s 740 mmHg 72%
17:00 +22°C° 0.2 mm 5 m/s 740 mmHg 75%
18:00 +21°C° 0.2 mm 4 m/s 740 mmHg 77%
19:00 +20°C° 0.1 mm 3 m/s 740 mmHg 81%
20:00 +19°C° 0.1 mm 2 m/s 740 mmHg 85%
21:00 +18°C° 0.1 mm 1 m/s 740 mmHg 89%
22:00 +18°C° 0.1 mm 1 m/s 740 mmHg 89%
23:00 +16°C° 0.1 mm 1 m/s 740 mmHg 90%
Arată mai mult

Formular de consimțământ

Meteoprog și furnizorii noștri de servicii pot stoca și accesa date personale, precum cookies, identificatori de dispozitiv sau alte tehnologii similare pe dispozitivul dumneavoastră și procesa astfel de date pentru a personaliza conținutul și reclamele, dar și pentru a oferi caracteristici de social media și pentru a analiza traficul.

  • Stocarea și/sau accesarea informațiilor pe dispozitivul dumneavoastră

    Cookies, identificatori de dispozitiv sau alte informații pot fi stocate sau accesate pe dispozitiv în scopurile indicate mai sus.

  • Reclame și conținut personalizat, evaluarea reclamelor și a conținutului, informații despre audiențe și dezvoltarea produselor

    Reclamele și conținutul pot fi personalizate pe baza unui profil. Pot fi adăugate date suplimentare pentru a personaliza mai bine reclamele și conținutul. Performanța reclamelor și conținutului poate fi măsurată. Pot fi obținute informații despre utilizatorii care au văzut reclamele și conținutul. Aceste date pot fi utilizate pentru a dezvolta sau îmbunătăți experiența utilizatorilor, sistemele și software-ul.

Dând clic pe ‘Sunt de acord’, permiteți utilizarea cookie-urilor menționate, a identificatorilor de dispozitiv, balizelor web sau altor tehnologii similare. Setările pot fi modificate din browser-ul dispozitivului dumneavoastră.

În anumite scopuri, interesele legitime pot prima asupra consimțământului. Puteți citi mai multe informații în acest sens în Politica privind Confidențialitatea Datelor și Cookie.